weather.gov     
National Weather Service

Regional Weather Roundup
NWS Homepage
This page is being discontinued on March 12, 2014.
The same data is available at this site. Please update your bookmarks.
Thank you, and we apologize for the inconvenience.
Please send an email to SR-SRH.Webmaster@noaa.gov with any concerns.


Current Version
Previous Version:    01  02  03  04  05  06  07  08  09  10  11  12  13  14  15  16  17  18  19  20  21  22  23  24  25  26  27  28  29  30  
   31  32  33  34  35  36  37  38  39  40  41  42  43  44  45  46  47  48  49  50  51  52  53  
[Printable]
215
ASUS44 KMEG 281210
RWRTN
TENNESSEE HOURLY STATE WEATHER ROUNDUP
NATIONAL WEATHER SERVICE MEMPHIS TN
600 AM CST FRI NOV 28 2014

TNZ002-004-019-021-049-052-054-088>092-281300-
WEST TENNESSEE

CITY           SKY/WX    TMP DP  RH WIND       PRES   REMARKS
MEMPHIS INTL   CLEAR     32  24  72 S6        30.40S WCI  26
NWS MEMPHIS      N/A     29 N/A N/A MISG        N/A
JACKSON        CLEAR     28  21  75 S3        30.42S
DYERSBURG      CLEAR     28  14  54 CALM      30.43S
UNION CITY     CLEAR     21  21 100 CALM      30.40S
PARIS          CLEAR     21  19  93 SE6       30.40F WCI  14
HUNTINGDON     CLEAR     22  19  88 CALM      30.41F
LEXINGTON      CLEAR     21  19  93 CALM      30.41S
SAVANNAH       CLEAR     23  21  93 CALM      30.44R
$$

TNZ008-025-027-028-033-062-065-066-281300-
NORTH MIDDLE TENNESSEE

CITY           SKY/WX    TMP DP  RH WIND       PRES   REMARKS
NASHVILLE      PTCLDY    23  20  88 S3        30.46S
CLARKSVILLE    PTCLDY    25  22  88 SE5       30.43F WCI  19
COOKEVILLE     CLEAR     21  19  93 CALM      30.42R
CROSSVILLE     PTCLDY    21  17  84 W3        30.36R
$$

TNZ061-075-076-078-094-096-097-281300-
SOUTH MIDDLE TENNESSEE

CITY           SKY/WX    TMP DP  RH WIND       PRES   REMARKS
FAYETTEVILLE   CLEAR     21  18  86 MISG      30.42R
TULLAHOMA      CLEAR     19  16  86 CALM      30.42R
WINCHESTER     CLEAR     19  19 100 NW3       30.44R
MCMINNVILLE    CLEAR     19  18  93 CALM      30.42R
COLUMBIA       CLEAR     19  19 100 CALM      30.42S
SHELBYVILLE    CLEAR     19  18  93 CALM      30.45R
$$

TNZ017-018-042-046-047-281300-
NORTHEAST TENNESSEE

CITY           SKY/WX    TMP DP  RH WIND       PRES   REMARKS
TRI CITIES     MOCLDY    27  17  66 NW8       30.35R WCI  19
ELIZABETHTON   CLOUDY    27  21  80 CALM      30.35R
$$

TNZ012-013-036-069-073-074-281300-
CENTRAL EAST TENNESSEE

CITY           SKY/WX    TMP DP  RH WIND       PRES   REMARKS
KNOXVILLE      PTCLDY    25  21  85 SW3       30.40R
OAK RIDGE      CLEAR     25  20  81 CALM      30.42R
GATLINBURG     SUNNY     21  19  93 CALM      30.40R
MORRISTOWN     SUNNY     27  19  74 NW3       30.38R
$$

TNZ083-085-099-281300-
SOUTHEAST TENNESSEE

CITY           SKY/WX    TMP DP  RH WIND       PRES   REMARKS
CHATTANOOGA    PTCLDY    27  19  72 NW3       30.43R
$$

SKY/WX REPORTED AS FAIR MEANS FEW OR NO CLOUDS BELOW
12 THOUSAND FEET.





U.S. Dept. of Commerce
NOAA National Weather Service
1325 East West Highway
Silver Spring, MD 20910
E-mail: w-nws.webmaster@noaa.gov
Page last modified: May 16, 2007
NATIONAL WEATHER SERVICE: for Safety, for Work, for Fun - FOR LIFE